Time,TemperatureF,DewpointF,PressureIn,WindDirection,WindDirectionDegrees,WindSpeedMPH,WindSpeedGustMPH,Humidity,HourlyPrecipIn,Conditions,Clouds,dailyrainin,SoftwareType,DateUTC
2013-04-06 00:00:00,32.0,24.3,30.00,SSE,158,1.3,8.6,73,0.00,,SKC,0.00,VWS V14.01,2013-04-06 05:00:00,
2013-04-06 00:20:00,31.6,25.3,29.97,ESE,112,1.5,9.4,77,0.00,,SKC,0.00,VWS V14.01,2013-04-06 05:20:00,
2013-04-06 00:40:00,31.8,26.4,29.97,ENE,68,4.1,7.4,80,0.00,,SKC,0.00,VWS V14.01,2013-04-06 05:40:00,
2013-04-06 01:00:00,31.6,27.9,29.97,ENE,68,4.6,8.6,86,0.00,,SKC,0.00,VWS V14.01,2013-04-06 06:00:00,
2013-04-06 01:20:00,31.6,28.5,29.94,NNE,22,2.8,11.4,88,0.00,,SKC,0.00,VWS V14.01,2013-04-06 06:20:00,
2013-04-06 01:40:00,31.6,28.8,29.94,East,90,4.4,12.9,89,0.00,,SKC,0.00,VWS V14.01,2013-04-06 06:40:00,
2013-04-06 02:00:00,31.6,29.0,29.91,SE,135,4.4,10.2,90,0.00,,SKC,0.00,VWS V14.01,2013-04-06 07:00:00,
2013-04-06 02:20:00,31.8,29.2,29.91,East,90,7.5,15.3,90,0.00,,SKC,0.00,VWS V14.01,2013-04-06 07:20:00,
2013-04-06 02:40:00,32.2,29.3,29.88,ENE,68,2.3,11.4,89,0.00,,SKC,0.00,VWS V14.01,2013-04-06 07:40:00,
2013-04-06 03:00:00,32.2,29.3,29.88,East,90,3.9,14.9,89,0.00,,SKC,0.00,VWS V14.01,2013-04-06 08:00:00,
2013-04-06 03:20:00,32.5,29.9,29.85,NNW,338,2.8,11.0,90,0.00,,SKC,0.00,VWS V14.01,2013-04-06 08:20:00,
2013-04-06 03:40:00,32.5,29.7,29.85,ENE,68,3.1,11.0,89,0.00,,SKC,0.00,VWS V14.01,2013-04-06 08:40:00,
2013-04-06 04:00:00,32.5,29.9,29.85,ENE,68,6.4,20.8,90,0.00,,SKC,0.00,VWS V14.01,2013-04-06 09:00:00,
2013-04-06 04:20:00,32.7,30.1,29.82,East,90,2.8,19.2,90,0.00,,SKC,0.00,VWS V14.01,2013-04-06 09:20:00,
2013-04-06 04:40:00,32.9,30.0,29.82,SW,225,3.9,15.3,89,0.00,,SKC,0.00,VWS V14.01,2013-04-06 09:40:00,
2013-04-06 05:00:00,33.1,29.9,29.82,WNW,292,1.8,14.9,88,0.00,,SKC,0.00,VWS V14.01,2013-04-06 10:00:00,
2013-04-06 05:20:00,33.1,29.6,29.79,ESE,112,3.3,16.4,87,0.00,,SKC,0.00,VWS V14.01,2013-04-06 10:20:00,
2013-04-06 05:40:00,33.1,29.4,29.79,WSW,248,3.1,21.1,86,0.00,,SKC,0.00,VWS V14.01,2013-04-06 10:40:00,
2013-04-06 06:00:00,33.3,29.2,29.79,SSE,158,3.9,14.1,85,0.00,,SKC,0.00,VWS V14.01,2013-04-06 11:00:00,
2013-04-06 06:20:00,33.3,29.2,29.79,NNW,338,2.8,13.3,85,0.00,,SKC,0.00,VWS V14.01,2013-04-06 11:20:00,
2013-04-06 06:40:00,33.3,28.7,29.79,South,180,4.1,21.5,83,0.00,,SKC,0.00,VWS V14.01,2013-04-06 11:40:00,
2013-04-06 07:00:00,33.3,28.4,29.79,WSW,248,4.9,13.7,82,0.00,,SKC,0.00,VWS V14.01,2013-04-06 12:00:00,
2013-04-06 07:20:00,32.9,28.9,29.76,NNE,22,3.1,30.2,85,0.00,,SKC,0.00,VWS V14.01,2013-04-06 12:20:00,
2013-04-06 07:40:00,32.9,28.6,29.76,NNW,338,2.8,14.9,84,0.00,,SKC,0.00,VWS V14.01,2013-04-06 12:40:00,
2013-04-06 08:20:00,33.1,27.9,29.76,ESE,112,4.6,21.1,81,0.00,,SKC,0.00,VWS V14.01,2013-04-06 13:20:00,
2013-04-06 08:40:00,32.9,27.1,29.74,ENE,68,7.5,12.5,79,0.00,,SKC,0.00,VWS V14.01,2013-04-06 13:40:00,
2013-04-06 09:00:00,33.3,27.1,29.74,WSW,248,7.2,11.7,78,0.00,,SKC,0.00,VWS V14.01,2013-04-06 14:00:00,
2013-04-06 09:20:00,33.3,26.8,29.71,SSW,202,2.8,14.1,77,0.00,,SKC,0.00,VWS V14.01,2013-04-06 14:20:00,
2013-04-06 09:40:00,33.6,26.6,29.71,NNW,338,3.6,12.9,75,0.00,,SKC,0.00,VWS V14.01,2013-04-06 14:40:00,
2013-04-06 10:00:00,34.0,25.9,29.71,ENE,68,6.4,18.4,72,0.00,,SKC,0.00,VWS V14.01,2013-04-06 15:00:00,
2013-04-06 10:20:00,34.9,25.4,29.68,NE,45,3.6,23.1,68,0.00,,SKC,0.00,VWS V14.01,2013-04-06 15:20:00,
2013-04-06 10:40:00,35.6,25.4,29.68,SSW,202,5.7,21.5,66,0.00,,SKC,0.00,VWS V14.01,2013-04-06 15:40:00,
2013-04-06 11:00:00,36.9,25.1,29.68,West,270,3.6,18.0,62,0.00,,SKC,0.00,VWS V14.01,2013-04-06 16:00:00,
2013-04-06 11:20:00,36.5,24.3,29.65,WSW,248,3.3,14.1,61,0.00,,SKC,0.00,VWS V14.01,2013-04-06 16:20:00,
2013-04-06 11:40:00,35.6,26.5,29.65,SSE,158,2.3,16.8,69,0.00,,SKC,0.00,VWS V14.01,2013-04-06 16:40:00,
2013-04-06 12:00:00,36.0,29.1,29.65,SSE,158,1.3,9.4,76,0.00,,SKC,0.00,VWS V14.01,2013-04-06 17:00:00,
2013-04-06 12:20:00,38.1,30.2,29.62,ESE,112,2.8,8.2,73,0.00,,SKC,0.00,VWS V14.01,2013-04-06 17:20:00,
2013-04-06 12:40:00,38.8,30.3,29.62,SE,135,5.4,11.4,71,0.04,,SKC,0.04,VWS V14.01,2013-04-06 17:40:00,
2013-04-06 13:00:00,39.6,30.2,29.62,ENE,68,1.0,11.4,69,0.08,,SKC,0.08,VWS V14.01,2013-04-06 18:00:00,
2013-04-06 13:20:00,40.5,30.0,29.59,SSE,158,5.7,10.2,66,0.08,,SKC,0.08,VWS V14.01,2013-04-06 18:20:00,
2013-04-06 13:40:00,41.0,29.0,29.59,South,180,0.0,8.6,62,0.08,,SKC,0.08,VWS V14.01,2013-04-06 18:40:00,
2013-04-06 14:00:00,41.7,29.7,29.59,South,180,2.8,12.5,62,0.04,,SKC,0.08,VWS V14.01,2013-04-06 19:00:00,
2013-04-06 14:20:00,41.2,29.6,29.59,SSW,202,0.0,6.3,63,0.00,,SKC,0.08,VWS V14.01,2013-04-06 19:20:00,
2013-04-06 14:40:00,40.8,28.8,29.59,SSW,202,1.8,9.8,62,0.00,,SKC,0.08,VWS V14.01,2013-04-06 19:40:00,
2013-04-06 15:00:00,40.6,28.6,29.59,ENE,68,1.5,3.9,62,0.00,,SKC,0.08,VWS V14.01,2013-04-06 20:00:00,
2013-04-06 15:20:00,40.5,28.5,29.56,ENE,68,2.8,6.7,62,0.00,,SKC,0.08,VWS V14.01,2013-04-06 20:20:00,
2013-04-06 15:40:00,39.7,28.6,29.56,ENE,68,0.0,4.3,64,0.00,,SKC,0.08,VWS V14.01,2013-04-06 20:40:00,
2013-04-06 16:00:00,38.7,30.1,29.56,ENE,68,0.0,0.0,71,0.00,,SKC,0.08,VWS V14.01,2013-04-06 21:00:00,
2013-04-06 16:20:00,37.4,30.5,29.56,ENE,68,1.5,3.9,76,0.05,,SKC,0.13,VWS V14.01,2013-04-06 21:20:00,
2013-04-06 16:40:00,36.3,30.4,29.56,East,90,0.0,3.5,79,0.05,,SKC,0.13,VWS V14.01,2013-04-06 21:40:00,
2013-04-06 17:00:00,35.2,30.0,29.56,East,90,0.0,2.7,81,0.09,,SKC,0.17,VWS V14.01,2013-04-06 22:00:00,
2013-04-06 17:20:00,34.5,29.9,29.56,East,90,0.0,0.0,83,0.09,,SKC,0.17,VWS V14.01,2013-04-06 22:20:00,
2013-04-06 17:40:00,34.0,29.7,29.59,East,90,0.0,0.0,84,0.04,,SKC,0.17,VWS V14.01,2013-04-06 22:40:00,
2013-04-06 18:00:00,34.0,30.2,29.59,East,90,0.0,0.0,86,0.04,,SKC,0.17,VWS V14.01,2013-04-06 23:00:00,
2013-04-06 18:20:00,33.8,30.4,29.59,East,90,0.0,0.0,87,0.00,,SKC,0.17,VWS V14.01,2013-04-06 23:20:00,
2013-04-06 18:40:00,33.8,30.4,29.59,East,90,0.0,0.0,87,0.00,,SKC,0.17,VWS V14.01,2013-04-06 23:40:00,
2013-04-06 19:00:00,33.8,30.6,29.56,East,90,0.0,1.6,88,0.00,,SKC,0.17,VWS V14.01,2013-04-07 00:00:00,
2013-04-06 19:20:00,33.6,30.7,29.59,East,90,0.0,2.0,89,0.00,,SKC,0.17,VWS V14.01,2013-04-07 00:20:00,
2013-04-06 19:40:00,33.4,30.5,29.59,East,90,0.0,0.0,89,0.00,,SKC,0.17,VWS V14.01,2013-04-07 00:40:00,
2013-04-06 20:00:00,33.3,30.6,29.56,East,90,0.0,1.6,90,0.00,,SKC,0.17,VWS V14.01,2013-04-07 01:00:00,
2013-04-06 20:20:00,33.1,30.5,29.59,East,90,0.0,0.0,90,0.00,,SKC,0.17,VWS V14.01,2013-04-07 01:20:00,
2013-04-06 20:40:00,32.9,30.6,29.59,East,90,0.0,0.0,91,0.00,,SKC,0.17,VWS V14.01,2013-04-07 01:40:00,
2013-04-06 21:00:00,32.9,30.8,29.59,East,90,0.0,0.0,92,0.00,,SKC,0.17,VWS V14.01,2013-04-07 02:00:00,
2013-04-06 21:20:00,32.9,31.4,29.59,East,90,0.0,1.6,94,0.00,,SKC,0.17,VWS V14.01,2013-04-07 02:20:00,
2013-04-06 21:40:00,32.7,31.5,29.59,East,90,1.0,1.6,95,0.00,,SKC,0.17,VWS V14.01,2013-04-07 02:40:00,
2013-04-06 22:00:00,32.7,32.0,29.62,East,90,1.0,3.9,97,0.00,,SKC,0.17,VWS V14.01,2013-04-07 03:00:00,
2013-04-06 22:40:00,32.2,31.4,29.62,East,90,0.0,2.7,97,0.00,,SKC,0.17,VWS V14.01,2013-04-07 03:40:00,
2013-04-06 23:20:00,32.2,31.4,29.65,East,90,0.0,0.0,97,0.00,,SKC,0.17,VWS V14.01,2013-04-07 04:20:00,
2013-04-06 23:40:00,32.2,31.7,29.65,East,90,0.0,1.6,98,0.00,,SKC,0.17,VWS V14.01,2013-04-07 04:40:00,